Location: Dürabuch
(48.2640°N, 11.2185°E)
Time: 18:59:21
(UTC+00:00)

Resurs 1-4 Rocket - Pass Details

Date: 23 May 2024
Orbit: 798 x 813 km, 98.7° (Epoch: 23 June)

Event Time Altitude Azimuth Distance (km) Brightness Sun altitude
Rises 02:05:16 0° 9° (N) 3,319 6.4 -10.9°
Reaches altitude 10° 02:07:42 10° 3° (N) 2,384 5.4 -10.7°
Maximum altitude 02:12:37 42° 294° (WNW) 1,128 2.7 -10.1°
Enters shadow 02:17:06 12° 226° (SW) 2,211 3.7 -9.6°
